AirNav   Jet Aviation Boston
 
 400 users online  

U54 Bernard USFS Airport
Bernard, Idaho, USA

GOING TO BERNARD?


FAA INFORMATION EFFECTIVE 21 JUNE 2018

Location

FAA Identifier: U54
Lat/Long: 44-58-46.6920N / 114-44-05.3290W
44-58.778200N / 114-44.088817W
44.9796367 / -114.7348136
(estimated)
Elevation: 3626 ft. / 1105.2 m (surveyed)
Variation: 17E (1985)
Time zone: UTC -6 (UTC -7 during Standard Time)
Zip code: 83469

Airport Operations

Airport use: Open to the public
Activation date: 08/1947
Control tower: no
ARTCC: SALT LAKE CITY CENTER
FSS: BOISE FLIGHT SERVICE STATION
NOTAMs facility: BOI (NOTAM-D service available)
Attendance: UNATNDD
Wind indicator: yes
Segmented circle: no

Airport Communications

CTAF: 122.9

Nearby radio navigation aids

VOR radial/distance  VOR name  Freq  Var
LKTr252/27.7SALMON VOR/DME113.5013E

Airport Services

Parking: tiedowns
Airframe service: NONE
Powerplant service: NONE
Bottled oxygen: NONE
Bulk oxygen: NONE

Runway Information

Runway 17/35

Dimensions: 1900 x 150 ft. / 579 x 46 m
Surface: turf/dirt, in poor condition
MIDDLE PORTION OF RY ROUGH AND UNEVEN ENTIRE LENGTH.
Runway edge markings: RY 17/35 EDGES & THLDS MKD WITH WHITE ROCK MARKERS.
RUNWAY 17  RUNWAY 35
Gradient: 0.7%0.7%
Traffic pattern: leftleft
Markings: nonenone
Obstructions: 55 ft. tree, 150 ft. from runway, 70 ft. left of centerline, 2:1 slope to clear
RY 17 +4 FT FENCE AT 0 FT 85 FT R; +500' RIDGE AT 1OOO FT, ON CNTRLN; +500 FT RIDGE AT 500 FT 200 FT R; +30 FT RIDGE AT 200 FT ON CNTRLN.
170 ft. hill, 1000 ft. from runway, 300 ft. right of centerline, 5:1 slope to clear

Airport Ownership and Management from official FAA records

Ownership: Publicly-owned
Owner: U S FOREST SERVICE
324 25TH ST
OGDEN, UT 84401
Phone 801-625-5511
Manager: MIDDLE FORK RANGER DIST.
1206 S CHALLIS
SALMON, ID 83467
Phone 208-756-5554

Airport Operational Statistics

Aircraft operations: avg 79/month *
53% transient general aviation
47% air taxi
* for 12-month period ending 08 May 2016

Additional Remarks

FLYING B PVT ARPT LCTD 1/2 MILE UPSTREAM.
NO WINTER MAINTENANCE.
LAND RY 35; TKOF RY 17; NO TGL OR STOP & GO LANDINGS; GO AROUNDS NOT RECOMMENDED DUE TO STEEP RISING TERRAIN OFF NORTH END OF RY 17.
NO TELEPHONE AVBL AT ARPT.

Instrument Procedures

There are no published instrument procedures at U54.

Some nearby airports with instrument procedures:

KSMN - Lemhi County Airport (37 nm E)
KMYL - Mc Call Municipal Airport (58 nm W)
6S5 - Ravalli County Airport (80 nm N)
KGIC - Idaho County Airport (82 nm NW)
KSUN - Friedman Memorial Airport (91 nm S)
 
Loc | Ops | Rwys | IFR | FBO | Links
Com | Nav | Svcs | Stats | Notes


 
Area around U54 (Bernard USFS Airport)
 
Road maps at: MapQuest Bing Google
 
Aerial photo
WARNING: Photo may not be current or correct
Aerial photo of U54 (Bernard USFS Airport)
Photo taken 05-Jul-2008

Do you have a better or more recent aerial photo of Bernard USFS Airport that you would like to share? If so, please send us your photo.

 
Sectional chart

 
Airport distance calculator
Flying to Bernard USFS Airport? Find the distance to fly.

From to U54

Sunrise and sunset
Times for 16-Jul-2018
 Local
(UTC-6)
 Zulu
(UTC)
Morning civil twilight05:3311:33
Sunrise06:0912:09
Sunset21:2103:21
Evening civil twilight21:5703:57

Current date and time
Zulu (UTC)  16-Jul-2018 06:41:58
Local (UTC-6)  16-Jul-2018 00:41:58
 
METAR
KLLJ 
35nm SE 
160555Z AUTO 15009KT 10SM FEW060 BKN110 23/07 A3015 RMK AO2 SLP129 T02330072 10344 20233 51015
KSMN 
38nm E 
160556Z AUTO 14004KT 10SM CLR 22/06 A3010 RMK AO2 SLP153 6//// T02220056 10333 20217 51020 PNO $
KSNT 
50nm S 
160551Z AUTO 16004KT 15/03 A3028 RMK AO1 SLP138 T01500033 10294 20150 53002
TAF
KSMN 
38nm E 
160540Z 1606/1706 VRB03KT P6SM BKN150 FM161700 VRB04KT P6SM VCSH BKN100 FM162100 36006KT P6SM VCTS BKN080CB FM170000 19007KT P6SM VCSH BKN100
NOTAMs
Click for the latest NOTAMs
NOTAMs are issued by the DoD/FAA and will open in a separate window not controlled by AirNav.

 

 
 

Would you like to see your business listed on this page?

 If your business provides an interesting product or service to pilots, flight crews, aircraft, or users of the Bernard USFS Airport, you should consider listing it here.  To start the listing process, click on the button below
 
Add a business
 

Other Pages about Bernard USFS Airport

www.flyidaho.org/...
 
Update a link
 
Copyright © AirNav, LLC. All rights reserved. Privacy Policy  Contact